Flag Island, MN

6:40 AM CDT on June 27, 2017 (GMT -0500)
Flag Island

Weather History for KFGN - September, 2013

Change the Weather History Date:

Saturday, September 21, 2013

  Actual Average Record
Temperature  
Mean Temperature 48 °F -  
Max Temperature 53 °F 57 °F 80 °F (2015)
Min Temperature 42 °F 45 °F 35 °F (2000)
Degree Days  
Heating Degree Days 18    
Moisture  
Dew Point 37 °F    
Average Humidity 67    
Maximum Humidity 87    
Minimum Humidity 47    
Precipitation  
Precipitation 0.00 in - - ()
Sea Level Pressure  
Sea Level Pressure 29.95 in    
Wind  
Wind Speed 9 mph (North)    
Max Wind Speed 15 mph    
Max Gust Speed 20 mph    
Visibility 10 miles    
Events      
Averages and records for this station are not official NWS values.
T = Trace of Precipitation, MM = Missing Value Source: NWS Daily Summary

Daily Weather History Graph

Daily Weather History Graph

Search for Another Location

Airport or City:

Trip Planner

Search our weather history database for the weather conditions in past years. The results will help you decide how hot, cold, wet, or windy it might be!

Date:

Astronomy

Sep. 21, 2013 Rise Set
Actual Time 7:05 AM CDT 7:19 PM CDT
Civil Twilight 6:33 AM CDT 7:50 PM CDT
Nautical Twilight 5:55 AM CDT 8:28 PM CDT
Astronomical Twilight 5:16 AM CDT 9:07 PM CDT
Moon 8:12 PM CDT (9/21) 9:40 AM CDT (9/21)
Length of Visible Light 13h 17m
Length of Day
12h 14m
Waning Gibbous, 94% of the Moon is Illuminated
Sep 21
Waning Gibbous
Sep 26
Last Quarter
Oct 4
New
Oct 11
First Quarter
Oct 18
Full

Hourly Weather History & Observations

Time (CDT) Temp. Windchill Dew Point Humidity Pressure Visibility Wind Dir Wind Speed Gust Speed Precip Events Conditions
12:13 AM 46.4 °F 40.4 °F 39.2 °F 76% 29.91 in 10.0 mi NNW 13.8 mph - N/A   Overcast
12:33 AM 46.4 °F 41.1 °F 37.4 °F 71% 29.91 in 10.0 mi North 11.5 mph 19.6 mph N/A   Mostly Cloudy
12:53 AM 48.2 °F - 37.4 °F 66% 29.92 in 10.0 mi North 12.7 mph 18.4 mph N/A   Mostly Cloudy
1:13 AM 46.4 °F 40.1 °F 37.4 °F 71% 29.93 in 10.0 mi NNW 15.0 mph - N/A   Overcast
1:33 AM 46.4 °F 41.5 °F 39.2 °F 76% 29.92 in 10.0 mi NNW 10.4 mph 16.1 mph N/A   Overcast
1:53 AM 46.4 °F 40.7 °F 37.4 °F 71% 29.92 in 10.0 mi North 12.7 mph 16.1 mph N/A   Mostly Cloudy
2:13 AM 46.4 °F 40.4 °F 37.4 °F 71% 29.93 in 10.0 mi NNW 13.8 mph 17.3 mph N/A   Scattered Clouds
2:33 AM 46.4 °F 40.4 °F 37.4 °F 71% 29.93 in 10.0 mi NNW 13.8 mph 18.4 mph N/A   Mostly Cloudy
2:53 AM 46.4 °F 41.5 °F 37.4 °F 71% 29.93 in 10.0 mi NNW 10.4 mph - N/A   Mostly Cloudy
3:13 AM 44.6 °F 39.2 °F 37.4 °F 76% 29.94 in 10.0 mi NNW 10.4 mph - N/A   Scattered Clouds
3:33 AM 44.6 °F 38.8 °F 37.4 °F 76% 29.95 in 10.0 mi NNW 11.5 mph - N/A   Clear
3:54 AM 44.6 °F 39.2 °F 35.6 °F 71% 29.95 in 10.0 mi NNW 10.4 mph - N/A   Clear
4:13 AM 44.6 °F 39.2 °F 37.4 °F 76% 29.95 in 10.0 mi NNW 10.4 mph - N/A   Clear
4:33 AM 44.6 °F 39.2 °F 35.6 °F 71% 29.95 in 10.0 mi NNW 10.4 mph - N/A   Clear
4:54 AM 44.6 °F 40.2 °F 35.6 °F 71% 29.95 in 10.0 mi North 8.1 mph - N/A   Clear
5:13 AM 44.6 °F 39.2 °F 37.4 °F 76% 29.96 in 10.0 mi NNW 10.4 mph - N/A   Clear
5:33 AM 44.6 °F 40.2 °F 37.4 °F 76% 29.96 in 10.0 mi North 8.1 mph - N/A   Clear
5:54 AM 44.6 °F 39.7 °F 37.4 °F 76% 29.97 in 10.0 mi North 9.2 mph - N/A   Clear
6:13 AM 44.6 °F 39.7 °F 35.6 °F 71% 29.98 in 10.0 mi North 9.2 mph - N/A   Clear
6:33 AM 42.8 °F 36.6 °F 37.4 °F 81% 29.98 in 10.0 mi North 11.5 mph - N/A   Clear
6:54 AM 42.8 °F 37.0 °F 35.6 °F 76% 29.98 in 10.0 mi North 10.4 mph - N/A   Clear
7:13 AM 42.8 °F 37.5 °F 37.4 °F 81% 29.99 in 10.0 mi North 9.2 mph - N/A   Clear
7:33 AM 42.8 °F 37.5 °F 37.4 °F 81% 29.99 in 10.0 mi North 9.2 mph - N/A   Clear
7:54 AM 42.8 °F 37.5 °F 35.6 °F 76% 29.99 in 10.0 mi North 9.2 mph - N/A   Clear
8:13 AM 42.8 °F 38.6 °F 39.2 °F 87% 30.00 in 10.0 mi West 6.9 mph - N/A   Scattered Clouds
8:33 AM 42.8 °F 38.0 °F 37.4 °F 81% 30.00 in 10.0 mi NNW 8.1 mph - N/A   Scattered Clouds
8:54 AM 42.8 °F 37.5 °F 37.4 °F 81% 30.00 in 10.0 mi North 9.2 mph - N/A   Clear
9:13 AM 44.6 °F 39.7 °F 35.6 °F 71% 30.00 in 10.0 mi North 9.2 mph - N/A   Clear
9:33 AM 44.6 °F 39.7 °F 35.6 °F 71% 30.00 in 10.0 mi NNW 9.2 mph - N/A   Clear
9:54 AM 44.6 °F 39.7 °F 35.6 °F 71% 30.00 in 10.0 mi NNW 9.2 mph - N/A   Scattered Clouds
10:13 AM 44.6 °F 39.7 °F 35.6 °F 71% 30.00 in 10.0 mi North 9.2 mph - N/A   Clear
10:33 AM 44.6 °F 39.2 °F 35.6 °F 71% 30.00 in 10.0 mi NNE 10.4 mph - N/A   Clear
10:54 AM 44.6 °F 39.7 °F 33.8 °F 66% 30.00 in 10.0 mi North 9.2 mph - N/A   Clear
11:13 AM 44.6 °F 40.2 °F 33.8 °F 66% 30.00 in 10.0 mi NNW 8.1 mph - N/A   Clear
11:33 AM 44.6 °F 40.7 °F 33.8 °F 66% 30.00 in 10.0 mi North 6.9 mph - N/A   Clear
11:54 AM 46.4 °F 45.2 °F 35.6 °F 66% 29.99 in 10.0 mi North 3.5 mph - N/A   Clear
12:13 PM 46.4 °F 43.5 °F 35.6 °F 66% 29.99 in 10.0 mi North 5.8 mph - N/A   Clear
12:33 PM 46.4 °F 42.9 °F 35.6 °F 66% 29.99 in 10.0 mi North 6.9 mph - N/A   Clear
12:54 PM 46.4 °F - 35.6 °F 66% 29.99 in 10.0 mi Calm Calm - N/A   Clear
1:13 PM 48.2 °F - 35.6 °F 62% 29.98 in 10.0 mi NNE 3.5 mph - N/A   Clear
1:33 PM 48.2 °F - 35.6 °F 62% 29.98 in 10.0 mi Calm Calm - N/A   Clear
1:54 PM 48.2 °F - 35.6 °F 62% 29.98 in 10.0 mi NNE 3.5 mph - N/A   Clear
2:13 PM 50.0 °F - 35.6 °F 58% 29.96 in 10.0 mi NNE 3.5 mph - N/A   Clear
2:33 PM 50.0 °F - 35.6 °F 58% 29.96 in 10.0 mi North 4.6 mph - N/A   Clear
2:54 PM 51.8 °F - 35.6 °F 54% 29.96 in 10.0 mi Calm Calm - N/A   Clear
3:13 PM 51.8 °F - 35.6 °F 54% 29.96 in 10.0 mi Calm Calm - N/A   Clear
3:33 PM 51.8 °F - 33.8 °F 50% 29.95 in 10.0 mi North 3.5 mph - N/A   Clear
3:53 PM 53.6 °F - 33.8 °F 47% 29.95 in 10.0 mi Calm Calm - N/A   Clear
4:13 PM 53.6 °F - 35.6 °F 51% 29.95 in 5.0 mi WSW 3.5 mph - N/A   Haze
4:33 PM 53.6 °F - 35.6 °F 51% 29.94 in 10.0 mi Calm Calm - N/A   Clear
4:53 PM 53.6 °F - 35.6 °F 51% 29.93 in 10.0 mi Calm Calm - N/A   Clear
5:13 PM 53.6 °F - 37.4 °F 54% 29.93 in 10.0 mi East 3.5 mph - N/A   Clear
5:33 PM 53.6 °F - 37.4 °F 54% 29.93 in 10.0 mi Calm Calm - N/A   Clear
5:53 PM 53.6 °F - 39.2 °F 58% 29.93 in 10.0 mi Calm Calm - N/A   Clear
6:13 PM 53.6 °F - 39.2 °F 58% 29.93 in 10.0 mi Calm Calm - N/A   Clear
6:33 PM 53.6 °F - 37.4 °F 54% 29.93 in 10.0 mi Calm Calm - N/A   Clear
6:53 PM 51.8 °F - 37.4 °F 58% 29.92 in 10.0 mi Calm Calm - N/A   Clear
7:13 PM 51.8 °F - 37.4 °F 58% 29.92 in 10.0 mi Calm Calm - N/A   Clear
7:34 PM 51.8 °F - 37.4 °F 58% 29.92 in 10.0 mi East 3.5 mph - N/A   Clear
7:53 PM 51.8 °F - 37.4 °F 58% 29.92 in 10.0 mi Calm Calm - N/A   Clear
8:13 PM 51.8 °F - 39.2 °F 62% 29.92 in 10.0 mi East 3.5 mph - N/A   Clear
8:33 PM 50.0 °F - 41.0 °F 71% 29.92 in 10.0 mi East 3.5 mph - N/A   Clear
8:53 PM 50.0 °F - 42.8 °F 76% 29.92 in 10.0 mi Calm Calm - N/A   Clear
9:13 PM 50.0 °F - 41.0 °F 71% 29.92 in 10.0 mi East 3.5 mph - N/A   Clear
9:33 PM 50.0 °F - 39.2 °F 66% 29.92 in 10.0 mi East 4.6 mph - N/A   Clear
9:54 PM 50.0 °F - 39.2 °F 66% 29.92 in 10.0 mi East 3.5 mph - N/A   Clear
10:13 PM 50.0 °F - 41.0 °F 71% 29.92 in 10.0 mi East 4.6 mph - N/A   Clear
10:33 PM 51.8 °F - 41.0 °F 67% 29.93 in 10.0 mi East 3.5 mph - N/A   Clear
10:54 PM 51.8 °F - 41.0 °F 67% 29.93 in 10.0 mi East 4.6 mph - N/A   Clear
11:13 PM 51.8 °F - 41.0 °F 67% 29.93 in 10.0 mi SE 6.9 mph - N/A   Clear
11:33 PM 51.8 °F - 41.0 °F 67% 29.93 in 10.0 mi SE 6.9 mph - N/A   Clear
11:54 PM 51.8 °F - 42.8 °F 71% 29.93 in 10.0 mi SE 8.1 mph - N/A   Clear